Tracking 20242 objects as of 24-Jan-2020
HD Live streaming from Space Station
objects crossing your sky now

ATLAS 41E DEB

Track ATLAS 41E DEB now!
10-day predictions


NORAD ID: 15616
Int'l Code: 1985-021F
Perigee: 510.5 km
Apogee: 544.7 km
Inclination: 107.5 °
Period: 95.0 minutes
Semi major axis: 6898 km
RCS: 0.0514 m2 (small)
Launch date: March 13, 1985
Source: United States (US)
Launch site: AIR FORCE WESTERN TEST RANGE (AFWTR)

Note: This is SATELLITE DEBRIS
aabbcc
Your satellite tracking list
Your tracking list is empty




NASA's NSSDC Master Catalog

Two Line Element Set (TLE):
1 15616U 85021F   20023.54372217  .00002358  00000-0  13754-3 0  9994
2 15616 107.4751  59.9080 0024776 218.2805 141.6622 15.15169975853972
Source of the keplerian elements: AFSPC